Change the Weather History Date:

Saturday, July 13, 2013

  Actual Average Record
Temperature  
Mean Temperature 66 °F -  
Max Temperature 81 °F 63 °F 81 °F (2013)
Min Temperature 52 °F 53 °F 50 °F (2002)
Cooling Degree Days 2    
Growing Degree Days 16 (Base 50)    
Moisture  
Dew Point 58 °F    
Average Humidity 75    
Maximum Humidity 100    
Minimum Humidity 37    
Precipitation  
Precipitation 0.00 in - - ()
Sea Level Pressure  
Sea Level Pressure 30.28 in    
Wind  
Wind Speed 5 mph ()    
Max Wind Speed 25 mph    
Max Gust Speed -    
Visibility 6.3 miles    
Events Fog    
Averages and records for this station are not official NWS values.
T = Trace of Precipitation, MM = Missing Value Source: Averaged Metar Reports

Daily Weather History Graph

Daily Weather History Graph

Search for Another Location

Airport or City:

Trip Planner

Search our weather history database for the weather conditions in past years. The results will help you decide how hot, cold, wet, or windy it might be!

Date:

Astronomy

Jul. 13, 2013 Rise Set
Actual Time 5:26 AM BST 9:26 PM BST
Civil Twilight 4:43 AM BST 10:09 PM BST
Nautical Twilight 3:43 AM BST 11:08 PM BST
Astronomical Twilight 1:43 AM BST 1:00 AM BST
Moon 11:04 AM BST (7/13) 11:21 PM BST (7/13)
Length of Visible Light 17h 25m
Length of Day
16h 00m
Waxing Crescent, 23% of the Moon is Illuminated
Jul 13
Waxing Crescent
Jul 16
First Quarter
Jul 22
Full
Jul 29
Last Quarter
Aug 6
New

Hourly Weather History & Observations

Time (BST) Temp. Heat Index Dew Point Humidity Pressure Visibility Wind Dir Wind Speed Gust Speed Precip Events Conditions
12:50 AM 56 °F - 54 °F 92% 30.27 in 6 mi ENE 5.8 mph - -   Mist
12:50 AM 55.4 °F - 53.6 °F 94% 30.27 in 5.6 mi ENE 5.8 mph - N/A   Clear
1:50 AM 56 °F - 54 °F 93% 30.28 in 6 mi East 4.6 mph - -   Haze
1:50 AM 55.4 °F - 55.4 °F 100% 30.27 in 5.6 mi East 4.6 mph - N/A   Haze
2:50 AM 56 °F - 55 °F 95% 30.27 in 6 mi ENE 2.3 mph - -   Mist
2:50 AM 55.4 °F - 55.4 °F 100% 30.27 in 5.6 mi ENE 2.3 mph - N/A   Clear
3:50 AM 55 °F - 54 °F 98% 30.28 in 4 mi SW 1.2 mph - -   Mist
3:50 AM 55.4 °F - 55.4 °F 100% 30.27 in 4.3 mi SW 1.2 mph - N/A   Clear
4:50 AM 55 °F - 54 °F 98% 30.29 in 2 mi Calm Calm - - Fog Light Fog
4:50 AM 55.4 °F - 55.4 °F 100% 30.27 in 2.5 mi Calm Calm - N/A Fog Fog
5:50 AM 53 °F - 52 °F 95% 30.28 in 0 mi WNW 1.2 mph - - Fog Patches of Fog
5:50 AM 53.6 °F - 51.8 °F 94% 30.27 in 0.5 mi WNW 1.2 mph - N/A Fog Patches of Fog
6:50 AM 57 °F - 56 °F 97% 30.29 in 1 mi WNW 2.3 mph - - Fog Light Fog
6:50 AM 57.2 °F - 57.2 °F 100% 30.27 in 1.2 mi WNW 2.3 mph - N/A Fog Fog
7:50 AM 61 °F - 59 °F 91% 30.29 in 3 mi NNE 1.2 mph - -   Haze
7:50 AM 60.8 °F - 59.0 °F 94% 30.27 in 3.1 mi NNE 1.2 mph - N/A   Haze
8:50 AM 66 °F - 61 °F 78% 30.30 in 9 mi NW 4.5 mph - -   Haze
8:50 AM 66.2 °F - 60.8 °F 83% 30.30 in 6.2 mi NW 2.3 mph - N/A   Haze
9:50 AM 71 °F - 63 °F 70% 30.29 in 9 mi West 2.2 mph - -   Haze
9:50 AM 71.6 °F - 62.6 °F 73% 30.27 in 6.2 mi West 1.2 mph - N/A   Haze
10:50 AM 72 °F - 65 °F 72% 30.29 in 9 mi WSW 4.6 mph - -   Haze
10:50 AM 71.6 °F - 64.4 °F 78% 30.27 in 6.2 mi WSW 4.6 mph - N/A   Haze
11:50 AM 70 °F - 63 °F 72% 30.29 in 9 mi WSW 6.9 mph - -   Haze
11:50 AM 69.8 °F - 62.6 °F 78% 30.27 in 6.2 mi WSW 6.9 mph - N/A   Haze
12:50 PM 69 °F - 63 °F 76% 30.30 in 9 mi SW 8.1 mph - -   Haze
12:50 PM 68.0 °F - 62.6 °F 83% 30.30 in 6.2 mi SW 8.1 mph - N/A   Haze
1:50 PM 71.6 °F - 64.4 °F 78% 30.27 in 6.2 mi SW 6.9 mph - N/A   Haze
2:50 PM 73 °F - 64 °F 67% 30.29 in 11 mi WSW 11.2 mph - -   Haze
2:50 PM 73.4 °F - 64.4 °F 73% 30.27 in 6.2 mi WSW 5.8 mph - N/A   Haze
3:50 PM 80 °F - 58 °F 37% 30.28 in 11 mi NNE 24.6 mph - -   Haze
3:50 PM 80.6 °F 81.1 °F 59.0 °F 48% 30.27 in 6.2 mi NNE 12.7 mph - N/A   Haze
4:50 PM 79 °F - 59 °F 40% 30.29 in 11 mi NNE 13.8 mph - -   Haze
4:50 PM 78.8 °F - 59.0 °F 51% 30.27 in 6.2 mi NNE 13.8 mph - N/A   Haze
5:50 PM 77 °F - 58 °F 43% 30.28 in 11 mi NNE 11.5 mph - -   Haze
5:50 PM 77.0 °F - 59.0 °F 54% 30.27 in - NNE 11.5 mph - N/A   Clear
6:50 PM 74 °F - 59 °F 49% 30.28 in 11 mi North 10.4 mph - -   Haze
6:50 PM 73.4 °F - 59.0 °F 61% 30.27 in - North 10.4 mph - N/A   Clear
7:50 PM 71 °F - 57 °F 52% 30.28 in 11 mi North 8.1 mph - -   Haze
7:50 PM 71.6 °F - 57.2 °F 60% 30.27 in - North 8.1 mph - N/A   Clear
8:50 PM 69 °F - 56 °F 53% 30.28 in 11 mi North 9.2 mph - -   Haze
8:50 PM 69.8 °F - 55.4 °F 60% 30.27 in - North 9.2 mph - N/A   Clear
9:50 PM 68 °F - 57 °F 59% 30.30 in 6 mi North 11.5 mph - -   Haze
9:50 PM 68.0 °F - 57.2 °F 68% 30.30 in 5.6 mi North 11.5 mph - N/A   Haze
10:50 PM 66 °F - 58 °F 67% 30.30 in 6 mi NE 8.1 mph - -   Haze
10:50 PM 66.2 °F - 57.2 °F 73% 30.30 in 5.6 mi NE 8.1 mph - N/A   Haze
11:50 PM 65 °F - 55 °F 61% 30.30 in 7 mi NNE 8.1 mph - -   Haze
11:50 PM 64.4 °F - 55.4 °F 73% 30.30 in - NNE 8.1 mph - N/A   Clear